Time,TemperatureF,DewpointF,PressureIn,WindDirection,WindDirectionDegrees,WindSpeedMPH,WindSpeedGustMPH,Humidity,HourlyPrecipIn,Conditions,Clouds,dailyrainin,SoftwareType,DateUTC
2013-03-05 00:02:00,35.0,32.0,-100.00,NNW,344,2.0,6.0,94,9.06,,,-99.99,,2013-03-05 05:02:00,
2013-03-05 00:12:00,32.0,32.0,-100.00,North,5,1.0,6.0,95,2.83,,,-99.99,,2013-03-05 05:12:00,
2013-03-05 00:22:00,34.0,32.0,-100.00,North,351,1.0,6.0,95,0.00,,,-99.99,,2013-03-05 05:22:00,
2013-03-05 00:32:00,34.0,32.0,-100.00,North,354,1.0,6.0,95,7.36,,,-99.99,,2013-03-05 05:32:00,
2013-03-05 00:42:00,33.0,32.0,-100.00,NNW,347,2.0,6.0,95,1.14,,,-99.99,,2013-03-05 05:42:00,
2013-03-05 00:52:00,34.0,32.0,-100.00,NNW,348,3.0,6.0,97,1.14,,,-99.99,,2013-03-05 05:52:00,
2013-03-05 01:01:00,35.0,32.0,-100.00,North,4,2.0,6.0,95,0.00,,,-99.99,,2013-03-05 06:01:00,
2013-03-05 01:11:00,34.0,32.0,-100.00,North,360,3.0,6.0,95,0.00,,,-99.99,,2013-03-05 06:11:00,
2013-03-05 01:22:00,35.0,32.0,-100.00,North,5,4.0,6.0,95,0.00,,,-99.99,,2013-03-05 06:22:00,
2013-03-05 01:32:00,34.0,32.0,-100.00,North,1,3.0,6.0,97,1.14,,,-99.99,,2013-03-05 06:32:00,
2013-03-05 01:42:00,34.0,32.0,-100.00,North,358,4.0,6.0,97,1.14,,,-99.99,,2013-03-05 06:42:00,
2013-03-05 01:52:00,34.0,32.0,-100.00,NNW,341,6.0,6.0,95,1.14,,,-99.99,,2013-03-05 06:52:00,
2013-03-05 02:01:00,33.0,32.0,-100.00,North,352,6.0,8.0,95,1.14,,,-99.99,,2013-03-05 07:01:00,
2013-03-05 02:11:00,34.0,32.0,-100.00,North,1,7.0,8.0,95,2.83,,,-99.99,,2013-03-05 07:11:00,
2013-03-05 02:22:00,31.0,30.0,-100.00,North,360,6.0,8.0,95,0.00,,,-99.99,,2013-03-05 07:22:00,
2013-03-05 02:32:00,33.0,32.0,-100.00,NNW,344,5.0,8.0,97,0.00,,,-99.99,,2013-03-05 07:32:00,
2013-03-05 02:42:00,32.0,32.0,-100.00,North,0,6.0,8.0,95,0.00,,,-99.99,,2013-03-05 07:42:00,
2013-03-05 02:51:00,33.0,32.0,-100.00,North,360,6.0,8.0,95,0.00,,,-99.99,,2013-03-05 07:51:00,
2013-03-05 03:02:00,32.0,32.0,-100.00,North,4,4.0,8.0,97,0.00,,,-99.99,,2013-03-05 08:02:00,
2013-03-05 03:11:00,32.0,32.0,-100.00,NNW,340,5.0,8.0,95,0.00,,,-99.99,,2013-03-05 08:11:00,
2013-03-05 03:21:00,32.0,32.0,-100.00,NNE,12,4.0,8.0,95,0.00,,,-99.99,,2013-03-05 08:21:00,
2013-03-05 03:31:00,32.0,32.0,-100.00,North,7,4.0,8.0,95,0.00,,,-99.99,,2013-03-05 08:31:00,
2013-03-05 03:42:00,32.0,32.0,-100.00,NNW,334,6.0,8.0,95,0.00,,,-99.99,,2013-03-05 08:42:00,
2013-03-05 03:52:00,32.0,32.0,-100.00,North,352,5.0,8.0,95,0.00,,,-99.99,,2013-03-05 08:52:00,
2013-03-05 04:01:00,32.0,32.0,-100.00,North,2,6.0,8.0,95,0.00,,,-99.99,,2013-03-05 09:01:00,
2013-03-05 04:11:00,32.0,32.0,-100.00,NNW,347,6.0,8.0,95,0.00,,,-99.99,,2013-03-05 09:11:00,
2013-03-05 04:21:00,33.0,32.0,-100.00,North,350,7.0,8.0,95,0.00,,,-99.99,,2013-03-05 09:21:00,
2013-03-05 04:32:00,32.0,32.0,-100.00,North,360,6.0,8.0,95,0.00,,,-99.99,,2013-03-05 09:32:00,
2013-03-05 04:43:00,32.0,32.0,-100.00,North,360,4.0,8.0,95,0.00,,,-99.99,,2013-03-05 09:43:00,
2013-03-05 04:52:00,32.0,32.0,-100.00,NNW,328,3.0,8.0,95,0.00,,,-99.99,,2013-03-05 09:52:00,
2013-03-05 05:01:00,31.0,30.0,-100.00,NNW,344,3.0,8.0,95,0.00,,,-99.99,,2013-03-05 10:01:00,
2013-03-05 05:11:00,31.0,30.0,-100.00,NNW,345,4.0,8.0,94,0.00,,,-99.99,,2013-03-05 10:11:00,
2013-03-05 05:21:00,34.0,32.0,-100.00,NNW,336,6.0,8.0,94,0.00,,,-99.99,,2013-03-05 10:21:00,
2013-03-05 05:32:00,32.0,32.0,-100.00,NNW,344,5.0,8.0,94,0.00,,,-99.99,,2013-03-05 10:32:00,
2013-03-05 05:42:00,31.0,30.0,-100.00,NNW,341,5.0,8.0,94,0.00,,,-99.99,,2013-03-05 10:42:00,
2013-03-05 05:52:00,32.0,32.0,-100.00,NNW,348,6.0,8.0,94,0.00,,,-99.99,,2013-03-05 10:52:00,
2013-03-05 06:02:00,32.0,32.0,-100.00,North,351,6.0,8.0,94,0.00,,,-99.99,,2013-03-05 11:02:00,
2013-03-05 06:11:00,32.0,32.0,-100.00,North,8,6.0,8.0,94,0.00,,,-99.99,,2013-03-05 11:11:00,
2013-03-05 06:22:00,32.0,32.0,-100.00,North,354,6.0,8.0,94,0.00,,,-99.99,,2013-03-05 11:22:00,
2013-03-05 06:32:00,32.0,32.0,-100.00,NNW,337,6.0,8.0,94,0.00,,,-99.99,,2013-03-05 11:32:00,
2013-03-05 06:42:00,32.0,32.0,-100.00,NNW,345,6.0,8.0,94,0.00,,,-99.99,,2013-03-05 11:42:00,
2013-03-05 06:52:00,32.0,30.0,-100.00,NNW,348,6.0,8.0,93,0.00,,,-99.99,,2013-03-05 11:52:00,
2013-03-05 07:02:00,31.0,30.0,-100.00,NNW,348,6.0,8.0,93,0.00,,,-99.99,,2013-03-05 12:02:00,
2013-03-05 07:12:00,31.0,30.0,-100.00,NNE,12,6.0,8.0,94,0.00,,,-99.99,,2013-03-05 12:12:00,
2013-03-05 07:22:00,31.0,30.0,-100.00,North,360,5.0,8.0,93,0.00,,,-99.99,,2013-03-05 12:22:00,
2013-03-05 07:32:00,32.0,32.0,-100.00,North,4,6.0,8.0,93,0.00,,,-99.99,,2013-03-05 12:32:00,
2013-03-05 07:42:00,32.0,30.0,-100.00,North,357,6.0,8.0,90,0.00,,,-99.99,,2013-03-05 12:42:00,
2013-03-05 07:52:00,32.0,30.0,-100.00,North,352,6.0,8.0,88,0.00,,,-99.99,,2013-03-05 12:52:00,
2013-03-05 08:02:00,35.0,32.0,-100.00,NNW,348,5.0,8.0,88,0.00,,,-99.99,,2013-03-05 13:02:00,
2013-03-05 08:12:00,35.0,32.0,-100.00,NNW,340,6.0,8.0,86,0.00,,,-99.99,,2013-03-05 13:12:00,
2013-03-05 08:22:00,35.0,32.0,-100.00,NW,317,6.0,8.0,85,0.00,,,-99.99,,2013-03-05 13:22:00,
2013-03-05 08:32:00,33.0,30.0,-100.00,North,360,6.0,8.0,84,0.00,,,-99.99,,2013-03-05 13:32:00,
2013-03-05 08:42:00,32.0,28.0,-100.00,North,360,6.0,8.0,82,0.00,,,-99.99,,2013-03-05 13:42:00,
2013-03-05 08:52:00,34.0,30.0,-100.00,NE,40,5.0,8.0,84,0.00,,,-99.99,,2013-03-05 13:52:00,
2013-03-05 09:02:00,33.0,30.0,-100.00,NNE,12,3.0,8.0,84,0.00,,,-99.99,,2013-03-05 14:02:00,
2013-03-05 09:11:00,33.0,30.0,-100.00,North,0,6.0,8.0,84,0.00,,,-99.99,,2013-03-05 14:11:00,
2013-03-05 09:22:00,33.0,30.0,-100.00,NNW,347,7.0,8.0,84,0.00,,,-99.99,,2013-03-05 14:22:00,
2013-03-05 09:32:00,33.0,30.0,-100.00,NNE,16,6.0,8.0,84,0.00,,,-99.99,,2013-03-05 14:32:00,
2013-03-05 09:42:00,34.0,30.0,-100.00,North,351,7.0,8.0,84,0.00,,,-99.99,,2013-03-05 14:42:00,
2013-03-05 09:52:00,33.0,30.0,-100.00,NNW,341,8.0,10.0,84,0.00,,,-99.99,,2013-03-05 14:52:00,
2013-03-05 10:02:00,33.0,28.0,-100.00,NNW,348,6.0,10.0,82,0.00,,,-99.99,,2013-03-05 15:02:00,
2013-03-05 10:11:00,34.0,30.0,-100.00,North,351,7.0,10.0,81,0.00,,,-99.99,,2013-03-05 15:11:00,
2013-03-05 10:22:00,34.0,28.0,-100.00,South,189,8.0,10.0,80,4.53,,,-99.99,,2013-03-05 15:22:00,
2013-03-05 10:32:00,34.0,30.0,-100.00,North,350,9.0,12.0,80,0.00,,,-99.99,,2013-03-05 15:32:00,
2013-03-05 10:42:00,34.0,28.0,-100.00,North,358,11.0,14.0,78,0.00,,,-99.99,,2013-03-05 15:42:00,
2013-03-05 10:52:00,34.0,28.0,-100.00,NNW,336,11.0,14.0,77,0.00,,,-99.99,,2013-03-05 15:52:00,
2013-03-05 11:02:00,35.0,28.0,-100.00,North,4,9.0,14.0,76,0.00,,,-99.99,,2013-03-05 16:02:00,
2013-03-05 11:11:00,37.0,30.0,-100.00,NNW,337,9.0,14.0,76,0.00,,,-99.99,,2013-03-05 16:11:00,
2013-03-05 11:22:00,35.0,28.0,-100.00,NW,324,8.0,14.0,76,0.00,,,-99.99,,2013-03-05 16:22:00,
2013-03-05 11:32:00,37.0,30.0,-100.00,North,8,6.0,14.0,75,0.00,,,-99.99,,2013-03-05 16:32:00,
2013-03-05 11:42:00,34.0,28.0,-100.00,North,360,7.0,14.0,75,0.00,,,-99.99,,2013-03-05 16:42:00,
2013-03-05 11:52:00,32.0,27.0,-100.00,North,352,10.0,14.0,78,0.00,,,-99.99,,2013-03-05 16:52:00,
2013-03-05 12:01:00,34.0,28.0,-100.00,North,357,11.0,14.0,78,0.00,,,-99.99,,2013-03-05 17:01:00,
2013-03-05 12:11:00,33.0,28.0,-100.00,NNW,344,11.0,14.0,78,0.00,,,-99.99,,2013-03-05 17:11:00,
2013-03-05 12:22:00,34.0,28.0,-100.00,North,358,11.0,14.0,78,0.00,,,-99.99,,2013-03-05 17:22:00,
2013-03-05 12:32:00,34.0,28.0,-100.00,North,357,11.0,14.0,78,0.00,,,-99.99,,2013-03-05 17:32:00,
2013-03-05 12:42:00,35.0,30.0,-100.00,NNW,341,10.0,14.0,77,0.00,,,-99.99,,2013-03-05 17:42:00,
2013-03-05 12:52:00,35.0,30.0,-100.00,North,4,9.0,14.0,78,1.14,,,-99.99,,2013-03-05 17:52:00,
2013-03-05 13:02:00,35.0,30.0,-100.00,NNW,344,7.0,14.0,78,2.83,,,-99.99,,2013-03-05 18:02:00,
2013-03-05 13:11:00,35.0,30.0,-100.00,SW,230,8.0,14.0,78,12.48,,,-99.99,,2013-03-05 18:11:00,
2013-03-05 13:22:00,34.0,28.0,-100.00,North,351,11.0,14.0,80,0.00,,,-99.99,,2013-03-05 18:22:00,
2013-03-05 13:32:00,34.0,30.0,-100.00,North,352,12.0,14.0,80,2.83,,,-99.99,,2013-03-05 18:32:00,
2013-03-05 13:42:00,35.0,30.0,-100.00,NNW,344,11.0,14.0,81,1.14,,,-99.99,,2013-03-05 18:42:00,
2013-03-05 13:52:00,35.0,30.0,-100.00,NNW,341,10.0,14.0,81,0.00,,,-99.99,,2013-03-05 18:52:00,
2013-03-05 14:01:00,35.0,30.0,-100.00,North,358,9.0,14.0,81,0.00,,,-99.99,,2013-03-05 19:01:00,
2013-03-05 14:11:00,35.0,30.0,-100.00,NNW,345,9.0,14.0,81,0.00,,,-99.99,,2013-03-05 19:11:00,
2013-03-05 14:22:00,36.0,32.0,-100.00,North,357,10.0,14.0,82,0.00,,,-99.99,,2013-03-05 19:22:00,
2013-03-05 14:32:00,35.0,32.0,-100.00,North,357,11.0,14.0,84,0.00,,,-99.99,,2013-03-05 19:32:00,
2013-03-05 14:42:00,35.0,32.0,-100.00,NNW,347,11.0,14.0,84,0.00,,,-99.99,,2013-03-05 19:42:00,
2013-03-05 14:52:00,35.0,32.0,-100.00,North,358,11.0,14.0,85,0.00,,,-99.99,,2013-03-05 19:52:00,
2013-03-05 15:01:00,35.0,32.0,-100.00,North,0,10.0,14.0,84,0.00,,,-99.99,,2013-03-05 20:01:00,
2013-03-05 15:11:00,35.0,30.0,-100.00,NNW,347,10.0,14.0,82,0.00,,,-99.99,,2013-03-05 20:11:00,
2013-03-05 15:22:00,37.0,32.0,-100.00,NNW,330,9.0,14.0,82,0.00,,,-99.99,,2013-03-05 20:22:00,
2013-03-05 15:32:00,37.0,32.0,-100.00,WNW,302,9.0,14.0,88,0.00,,,-99.99,,2013-03-05 20:32:00,
2013-03-05 15:42:00,37.0,32.0,-100.00,NNW,343,10.0,14.0,86,0.00,,,-99.99,,2013-03-05 20:42:00,
2013-03-05 15:52:00,36.0,32.0,-100.00,NNW,348,9.0,14.0,86,0.00,,,-99.99,,2013-03-05 20:52:00,
2013-03-05 16:02:00,36.0,32.0,-100.00,North,2,11.0,14.0,86,0.00,,,-99.99,,2013-03-05 21:02:00,
2013-03-05 16:11:00,36.0,32.0,-100.00,North,351,11.0,14.0,88,1.14,,,-99.99,,2013-03-05 21:11:00,
2013-03-05 16:22:00,36.0,32.0,-100.00,NNW,336,11.0,14.0,88,0.00,,,-99.99,,2013-03-05 21:22:00,
2013-03-05 16:32:00,36.0,32.0,-100.00,NW,321,11.0,14.0,90,0.00,,,-99.99,,2013-03-05 21:32:00,
2013-03-05 16:42:00,35.0,32.0,-100.00,North,352,9.0,14.0,91,0.00,,,-99.99,,2013-03-05 21:42:00,
2013-03-05 16:52:00,35.0,32.0,-100.00,NNW,341,11.0,14.0,91,0.00,,,-99.99,,2013-03-05 21:52:00,
2013-03-05 17:01:00,35.0,32.0,-100.00,NNW,337,12.0,14.0,91,0.00,,,-99.99,,2013-03-05 22:01:00,
2013-03-05 17:11:00,36.0,32.0,-100.00,NNW,327,12.0,14.0,91,0.00,,,-99.99,,2013-03-05 22:11:00,
2013-03-05 17:22:00,35.0,32.0,-100.00,NW,326,12.0,14.0,91,1.14,,,-99.99,,2013-03-05 22:22:00,
2013-03-05 17:32:00,36.0,32.0,-100.00,NNW,343,13.0,14.0,93,1.14,,,-99.99,,2013-03-05 22:32:00,
2013-03-05 17:42:00,36.0,32.0,-100.00,NNW,333,12.0,17.0,90,1.14,,,-99.99,,2013-03-05 22:42:00,
2013-03-05 17:52:00,36.0,32.0,-100.00,North,354,9.0,17.0,90,1.14,,,-99.99,,2013-03-05 22:52:00,
2013-03-05 18:01:00,36.0,32.0,-100.00,North,350,9.0,17.0,90,1.14,,,-99.99,,2013-03-05 23:01:00,
2013-03-05 18:11:00,36.0,32.0,-100.00,North,355,9.0,17.0,90,1.14,,,-99.99,,2013-03-05 23:11:00,
2013-03-05 18:21:00,36.0,32.0,-100.00,NW,321,8.0,17.0,91,1.14,,,-99.99,,2013-03-05 23:21:00,
2013-03-05 18:32:00,36.0,32.0,-100.00,NW,319,9.0,9.0,91,0.00,,,-99.99,,2013-03-05 23:32:00,
2013-03-05 18:42:00,36.0,32.0,-100.00,NW,319,9.0,9.0,91,0.00,,,-99.99,,2013-03-05 23:42:00,
2013-03-05 18:52:00,33.0,32.0,-100.00,NNW,330,9.0,12.0,91,1.14,,,-99.99,,2013-03-05 23:52:00,
2013-03-05 19:02:00,32.0,30.0,-100.00,WNW,295,11.0,14.0,91,1.14,,,-99.99,,2013-03-06 00:02:00,
2013-03-05 19:11:00,32.0,30.0,-100.00,NW,326,11.0,14.0,91,2.83,,,-99.99,,2013-03-06 00:11:00,
2013-03-05 19:22:00,32.0,30.0,-100.00,WNW,296,9.0,14.0,91,1.14,,,-99.99,,2013-03-06 00:22:00,
2013-03-05 19:32:00,32.0,30.0,-100.00,NW,314,8.0,14.0,91,9.06,,,-99.99,,2013-03-06 00:32:00,
2013-03-05 19:42:00,31.0,30.0,-100.00,NW,310,8.0,14.0,93,14.17,,,-99.99,,2013-03-06 00:42:00,
2013-03-05 19:52:00,31.0,30.0,-100.00,NW,306,7.0,14.0,94,14.17,,,-99.99,,2013-03-06 00:52:00,
2013-03-05 20:02:00,31.0,30.0,-100.00,NW,304,6.0,14.0,94,17.01,,,-99.99,,2013-03-06 01:02:00,
2013-03-05 20:11:00,31.0,30.0,-100.00,WNW,289,7.0,14.0,94,18.70,,,-99.99,,2013-03-06 01:11:00,
2013-03-05 20:22:00,31.0,30.0,-100.00,NW,310,6.0,14.0,94,31.18,,,-99.99,,2013-03-06 01:22:00,
2013-03-05 20:32:00,30.0,30.0,-100.00,WNW,297,7.0,14.0,95,18.70,,,-99.99,,2013-03-06 01:32:00,
2013-03-05 20:42:00,30.0,30.0,-100.00,NW,304,6.0,14.0,95,31.18,,,-99.99,,2013-03-06 01:42:00,
2013-03-05 20:51:00,30.0,30.0,-100.00,West,271,6.0,14.0,97,12.48,,,-99.99,,2013-03-06 01:51:00,
2013-03-05 21:01:00,30.0,30.0,-100.00,WNW,290,6.0,14.0,95,15.31,,,-99.99,,2013-03-06 02:01:00,
2013-03-05 21:11:00,30.0,30.0,-100.00,WNW,296,5.0,14.0,97,9.06,,,-99.99,,2013-03-06 02:11:00,
2013-03-05 21:22:00,29.0,28.0,-100.00,WNW,295,4.0,14.0,97,10.79,,,-99.99,,2013-03-06 02:22:00,
2013-03-05 21:32:00,29.0,28.0,-100.00,WNW,289,4.0,14.0,95,12.48,,,-99.99,,2013-03-06 02:32:00,
2013-03-05 22:02:00,28.0,28.0,-100.00,WNW,289,6.0,14.0,95,6.22,,,-99.99,,2013-03-06 03:02:00,
2013-03-05 22:11:00,28.0,28.0,-100.00,WNW,299,4.0,14.0,97,4.53,,,-99.99,,2013-03-06 03:11:00,
2013-03-05 22:22:00,29.0,28.0,-100.00,WNW,296,5.0,14.0,97,9.06,,,-99.99,,2013-03-06 03:22:00,
2013-03-05 22:32:00,29.0,28.0,-100.00,ESE,117,5.0,14.0,97,9.06,,,-99.99,,2013-03-06 03:32:00,
2013-03-05 22:42:00,29.0,28.0,-100.00,ESE,117,5.0,14.0,97,9.06,,,-99.99,,2013-03-06 03:42:00,
2013-03-05 22:52:00,29.0,28.0,-100.00,NW,313,4.0,14.0,97,14.17,,,-99.99,,2013-03-06 03:52:00,
2013-03-05 23:11:00,29.0,28.0,-100.00,NW,310,6.0,14.0,97,6.22,,,-99.99,,2013-03-06 04:11:00,
2013-03-05 23:32:00,29.0,28.0,-100.00,NW,307,4.0,14.0,97,4.53,,,-99.99,,2013-03-06 04:32:00,
2013-03-05 23:42:00,29.0,28.0,-100.00,NW,313,4.0,14.0,97,6.22,,,-99.99,,2013-03-06 04:42:00,
2013-03-05 23:52:00,29.0,28.0,-100.00,West,272,5.0,14.0,97,12.48,,,-99.99,,2013-03-06 04:52:00,